Regional Weather Roundup
Issued by NWS

Home | Current Version | Previous Version | Graphics & Text | Print | Product List | Glossary On
Versions: 1 2 3 4 5 6 7 8 9 10 11 12 13 14 15 16 17 18 19 20 21 22 23 24 25 26 27 28 29 30 31 32 33 34 35 36 37 38 39 40 41 42 43 44 45 46 47 48 49 50
000
ASUS43 KFSD 171210
RWRSD

WEATHER ROUNDUP FOR SOUTH DAKOTA
NATIONAL WEATHER SERVICE SIOUX FALLS SD
600 AM CST TUE JAN 17 2017

NOTE: "FAIR" INDICATES FEW OR NO CLOUDS BELOW 12,000 FEET WITH NO
SIGNIFICANT WEATHER AND/OR OBSTRUCTIONS TO VISIBILITY.


SDZ001>005-009-010-012>017-171300-
NORTHWEST AND NORTH CENTRAL SOUTH DAKOTA

CITY           SKY/WX    TMP DP  RH WIND       PRES   REMARKS
BUFFALO          N/A     22  10  60 CALM      29.85F
FAITH            N/A     11   6  81 SW8       29.97S WCI  -1
MOBRIDGE       CLOUDY     5   0  79 SE3       29.98S
$$

SDZ012>016-024>037-041>051-057-063-072>074-171300-
SOUTHWEST AND SOUTH CENTRAL SOUTH DAKOTA

CITY           SKY/WX    TMP DP  RH WIND       PRES   REMARKS
RAPID CTY ARPT CLOUDY    14   9  80 CALM      29.97F
PIERRE         CLOUDY    10   7  87 SW8       30.02F WCI  -2
CUSTER         CLOUDY    25   3  38 SW8       29.93S WCI  16
ELLSWORTH AFB  CLEAR     20   9  61 SW5       29.95F WCI  14
PHILIP         CLOUDY    11   6  81 W9        30.03S WCI  -2
PINE RIDGE     CLOUDY    -1  -3  91 E3        30.01F
SPEARFISH      FAIR      23   7  50 CALM      29.93F
WINNER         FAIR      18  13  80 W8        30.04S WCI   8
$$

SDZ004>011-016>023-039-040-171300-
NORTHEAST SOUTH DAKOTA

CITY           SKY/WX    TMP DP  RH WIND       PRES   REMARKS
ABERDEEN       CLOUDY     0  -5  79 CALM      30.02R
WATERTOWN      CLOUDY     2  -3  80 CALM      29.97R
BROOKINGS      CLOUDY     6   3  87 CALM      29.97F
SISSETON         N/A      2  -1  88 CALM      29.99S
$$

SDZ017-020-022-023-036>040-048>070-171300-
SOUTHEAST SOUTH DAKOTA

CITY           SKY/WX    TMP DP  RH WIND       PRES   REMARKS
SIOUX FALLS    CLOUDY    13  10  88 W3        30.00F
HURON          CLOUDY     3   2  95 S5        30.03S WCI  -6
CHAMBERLAIN    CLOUDY    13  11  91 W8        30.05R WCI   2
MITCHELL       CLOUDY     9   6  88 W7        30.06R WCI  -2
YANKTON        CLOUDY    16  10  79 CALM      30.05S
$$

ABBREVIATIONS USED IN REMARKS
   TC - TEMPERATURE IN CELSIUS
  WCI - WIND CHILL INDEX
   HX - HEAT INDEX
  VSB - VISIBILITY





USA.gov is the U.S. government's official web portal to all federal, state and local government web resources and services.